Location: Axtheid
(49.6213°N, 11.8205°E)
Time: 04:30:48
(UTC+00:00)

Cosmos 1818 - Pass Details

Date: 24 January 2021
Orbit: 773 x 800 km, 65.0° (Epoch: 26 February)

Event Time Altitude Azimuth Distance (km) Brightness Sun altitude
Rises 18:01:52 0° 237° (WSW) 3,276 7.9 -20.3°
Reaches altitude 10° 18:04:22 10° 243° (WSW) 2,354 7.0 -20.7°
Maximum altitude 18:09:36 49° 318° (NW) 1,023 4.3 -21.5°
Enters shadow 18:12:50 23° 23° (NNE) 1,661 5.0 -22.0°
